Roda de Ter - l'Esquerda





Hora UTC 14:20
Temperatura 24.2 ºC
Humitat 49.0 %
Pressió 1017.4 hPa
Pluja 0.0 mm
Velocitat vent 12.9 km/h
Direcció vent N

Dades diàries 2021-09-19



Hora UTC (hivern +1h; estiu +2h)
Temperatura (ºC) Humitat (%) Pressió (hPa) Velocitat vent (km/h) Precipitació (mm)
Hora UTC Aire Humitat Pressió Vel. Dir. Vel. Max Dir. Intent. màx 5 min.
00:05 16.2 93.0 1015.1 0.0 N 0.0 0.0
00:10 16.1 92.0 1015.2 0.0 N 3.2 0.0
00:15 16.1 93.0 1015.3 0.0 N 3.2 0.0
00:20 16.1 93.0 1015.3 1.6 N 3.2 0.0
00:25 16.2 93.0 1015.4 0.0 N 3.2 0.0
00:30 16.2 93.0 1015.5 0.0 N 3.2 0.0
00:35 16.3 93.0 1015.5 1.6 N 3.2 0.0
00:40 16.3 93.0 1015.6 0.0 N 1.6 0.0
00:45 16.3 93.0 1015.5 0.0 N 1.6 0.0
00:50 16.3 93.0 1015.6 0.0 N 1.6 0.0
00:55 16.2 93.0 1015.5 1.6 N 3.2 0.0
01:00 16.1 93.0 1015.5 3.2 N 3.2 0.0
01:05 15.9 93.0 1015.5 1.6 N 3.2 0.0
01:10 15.8 93.0 1015.3 3.2 N 4.8 0.0
01:15 15.8 93.0 1015.3 4.8 N 4.8 0.0
01:20 15.8 93.0 1015.3 3.2 N 4.8 0.0
01:25 15.7 93.0 1015.4 0.0 N 4.8 0.0
01:30 15.5 93.0 1015.4 1.6 N 4.8 0.0
01:35 15.3 93.0 1015.6 0.0 N 4.8 0.0
01:40 15.2 93.0 1015.6 0.0 N 3.2 0.0
01:45 15.2 93.0 1015.6 1.6 N 3.2 0.0
01:50 14.9 93.0 1015.7 3.2 N 4.8 0.0
01:55 14.8 93.0 1015.6 3.2 N 6.4 0.0
02:00 14.8 93.0 1015.6 4.8 N 8.0 0.0
02:00 14.8 93.0 1015.6 3.2 N 8.0 0.0
02:10 14.8 93.0 1015.6 3.2 N 6.4 0.0
02:15 14.7 93.0 1015.7 1.6 N 6.4 0.0
02:20 14.7 93.0 1015.6 3.2 N 4.8 0.0
02:25 14.7 93.0 1015.7 3.2 N 4.8 0.0
02:30 14.4 93.0 1015.7 3.2 N 4.8 0.0
02:35 14.3 93.0 1015.7 3.2 N 4.8 0.0
02:40 14.2 93.0 1015.7 4.8 N 8.0 0.0
02:45 14.0 93.0 1015.7 3.2 N 6.4 0.0
02:50 13.9 93.0 1015.8 3.2 N 6.4 0.0
02:55 14.0 93.0 1015.8 3.2 N 3.2 0.0
03:00 14.1 93.0 1015.8 1.6 N 3.2 0.0
03:05 14.1 93.0 1016.0 1.6 N 3.2 0.0
03:10 14.2 93.0 1015.9 1.6 N 3.2 0.0
03:15 14.1 93.0 1015.9 0.0 N 3.2 0.0
03:20 14.2 93.0 1016.0 0.0 N 3.2 0.0
03:25 14.2 93.0 1016.0 3.2 N 4.8 0.0
03:30 14.1 93.0 1016.1 3.2 N 4.8 0.0
03:35 13.9 93.0 1016.0 0.0 N 4.8 0.0
03:40 13.8 93.0 1016.0 1.6 N 4.8 0.0
03:45 13.8 93.0 1016.1 1.6 N 4.8 0.0
03:50 13.8 93.0 1016.1 3.2 N 4.8 0.0
03:55 13.8 93.0 1016.2 0.0 N 6.4 0.0
04:00 13.8 93.0 1016.1 3.2 N 6.4 0.0
04:05 13.7 93.0 1016.2 1.6 N 3.2 0.0
04:10 13.7 93.0 1016.2 0.0 N 3.2 0.0
04:15 13.7 93.0 1016.3 1.6 N 3.2 0.0
04:20 13.7 93.0 1016.4 0.0 N 3.2 0.0
04:25 13.8 93.0 1016.3 1.6 N 3.2 0.0
04:30 13.6 93.0 1016.4 4.8 N 8.0 0.0
04:35 13.2 92.0 1016.4 6.4 N 8.0 0.0
04:40 12.8 92.0 1016.3 1.6 N 8.0 0.0
04:45 12.5 92.0 1016.3 4.8 N 8.0 0.0
04:50 12.3 92.0 1016.5 1.6 N 6.4 0.0
04:55 12.3 92.0 1016.6 1.6 N 4.8 0.0
05:00 12.4 92.0 1016.6 3.2 N 4.8 0.0
05:05 12.3 92.0 1016.7 1.6 N 4.8 0.0
05:10 12.3 91.0 1016.7 0.0 N 3.2 0.0
05:15 12.2 91.0 1016.8 0.0 N 3.2 0.0
05:20 12.4 92.0 1016.8 1.6 N 3.2 0.0
05:25 12.3 91.0 1016.8 0.0 N 3.2 0.0
05:30 12.3 92.0 1016.9 0.0 N 3.2 0.0
05:35 12.3 92.0 1017.0 1.6 N 3.2 0.0
05:40 12.2 91.0 1017.2 1.6 N 3.2 0.0
05:45 11.9 91.0 1017.2 4.8 N 6.4 0.0
05:50 11.7 91.0 1017.4 4.8 N 6.4 0.0
05:55 11.5 91.0 1017.3 4.8 N 6.4 0.0
06:00 11.4 91.0 1017.5 3.2 N 8.0 0.0
06:05 11.4 91.0 1017.6 4.8 N 8.0 0.0
06:10 11.6 91.0 1017.8 6.4 N 9.7 0.0
06:15 11.6 91.0 1017.7 4.8 N 9.7 0.0
06:20 11.6 91.0 1017.9 4.8 N 9.7 0.0
06:25 11.7 91.0 1017.9 4.8 N 9.7 0.0
06:30 11.8 91.0 1018.1 3.2 N 9.7 0.0
06:35 11.9 90.0 1018.0 4.8 N 9.7 0.0
06:40 12.1 91.0 1017.9 3.2 N 9.7 0.0
06:45 12.4 90.0 1018.1 1.6 N 6.4 0.0
06:50 12.7 90.0 1017.9 1.6 N 4.8 0.0
06:55 12.9 90.0 1018.0 6.4 N 6.4 0.0
07:00 12.9 89.0 1018.0 3.2 N 6.4 0.0
07:05 13.1 89.0 1018.1 3.2 N 6.4 0.0
07:10 13.3 87.0 1018.2 3.2 N 6.4 0.0
07:15 13.6 86.0 1018.3 1.6 N 4.8 0.0
07:20 13.4 86.0 1018.3 1.6 N 4.8 0.0
07:25 13.6 86.0 1018.2 0.0 N 3.2 0.0
07:30 13.8 86.0 1018.3 0.0 N 3.2 0.0
07:35 13.9 86.0 1018.3 1.6 N 3.2 0.0
07:40 14.1 86.0 1018.2 0.0 N 3.2 0.0
07:45 14.5 85.0 1018.4 0.0 N 3.2 0.0
07:50 14.7 84.0 1018.4 1.6 N 4.8 0.0
07:55 14.8 82.0 1018.5 0.0 N 4.8 0.0
08:00 15.2 83.0 1018.5 1.6 N 4.8 0.0
08:05 15.5 83.0 1018.5 1.6 N 4.8 0.0
08:10 15.8 82.0 1018.5 1.6 N 4.8 0.0
08:15 15.8 82.0 1018.5 1.6 N 4.8 0.0
08:20 15.5 82.0 1018.7 1.6 N 4.8 0.0
08:25 15.2 82.0 1018.6 0.0 N 4.8 0.0
08:30 15.8 82.0 1018.8 1.6 N 4.8 0.0
08:35 16.1 80.0 1018.9 3.2 N 4.8 0.0
08:40 16.3 80.0 1018.9 0.0 N 6.4 0.0
08:45 16.6 81.0 1018.9 1.6 N 6.4 0.0
08:50 16.7 80.0 1018.9 1.6 N 6.4 0.0
08:55 16.4 79.0 1019.0 0.0 SW 4.8 0.0
09:00 16.3 78.0 1019.0 3.2 NNW 6.4 0.0
09:05 16.8 77.0 1019.0 1.6 N 6.4 0.0
09:10 16.8 75.0 1018.9 4.8 N 8.0 0.0
09:15 16.7 79.0 1019.0 3.2 N 8.0 0.0
09:20 17.3 76.0 1019.1 4.8 NW 8.0 0.0
09:25 17.1 74.0 1019.2 3.2 N 8.0 0.0
09:30 17.2 78.0 1019.2 0.0 NW 6.4 0.0
09:35 17.3 74.0 1019.2 1.6 N 4.8 0.0
09:40 17.3 77.0 1019.1 4.8 NW 4.8 0.0
09:45 17.8 75.0 1019.1 4.8 N 6.4 0.0
09:50 17.8 74.0 1019.0 3.2 N 8.0 0.0
09:55 17.8 72.0 1019.1 1.6 N 8.0 0.0
10:00 18.0 73.0 1019.2 3.2 N 9.7 0.0
10:05 18.6 71.0 1019.1 4.8 N 8.0 0.0
10:10 18.6 71.0 1019.1 0.0 N 8.0 0.0
10:15 18.6 71.0 1019.0 1.6 N 4.8 0.0
10:20 18.6 68.0 1019.0 3.2 N 6.4 0.0
10:25 19.0 71.0 1018.9 4.8 N 6.4 0.0
10:30 19.3 68.0 1018.9 3.2 N 6.4 0.0
10:35 19.0 66.0 1018.8 1.6 N 9.7 0.0
10:40 19.3 67.0 1018.8 4.8 N 9.7 0.0
10:45 19.8 66.0 1018.8 3.2 N 12.9 0.0
10:50 19.9 66.0 1018.7 3.2 N 12.9 0.0
10:55 20.4 66.0 1018.7 6.4 N 8.0 0.0
11:00 19.9 67.0 1018.7 4.8 N 6.4 0.0
11:05 20.6 67.0 1018.7 4.8 N 8.0 0.0
11:10 20.7 64.0 1018.7 4.8 N 12.9 0.0
11:15 20.6 63.0 1018.7 8.0 N 12.9 0.0
11:20 20.9 62.0 1018.7 1.6 N 9.7 0.0
11:25 20.5 65.0 1018.7 6.4 N 8.0 0.0
11:30 21.1 63.0 1018.6 3.2 N 8.0 0.0
11:35 21.5 61.0 1018.6 1.6 N 8.0 0.0
11:40 21.9 60.0 1018.6 6.4 N 16.1 0.0
11:45 21.6 59.0 1018.7 6.4 N 16.1 0.0
11:50 21.3 61.0 1018.6 4.8 N 9.7 0.0
11:55 21.9 61.0 1018.6 1.6 N 6.4 0.0
12:00 21.5 60.0 1018.5 4.8 N 9.7 0.0
12:05 22.4 59.0 1018.6 1.6 N 9.7 0.0
12:10 22.4 60.0 1018.5 8.0 N 9.7 0.0
12:15 22.0 62.0 1018.4 1.6 N 12.9 0.0
12:20 22.6 62.0 1018.5 4.8 N 9.7 0.0
12:25 22.4 61.0 1018.2 4.8 N 9.7 0.0
12:30 22.9 59.0 1018.2 6.4 N 14.5 0.0
12:35 23.3 59.0 1018.2 1.6 N 12.9 0.0
12:40 22.3 57.0 1018.0 3.2 N 8.0 0.0
12:45 22.9 58.0 1017.9 4.8 N 8.0 0.0
12:50 23.0 60.0 1017.9 1.6 N 12.9 0.0
12:55 23.3 60.0 1017.9 8.0 N 12.9 0.0
13:00 23.6 59.0 1017.8 6.4 N 9.7 0.0
13:05 23.9 57.0 1017.8 9.7 N 12.9 0.0
13:10 23.7 54.0 1017.9 4.8 N 12.9 0.0
13:15 23.7 56.0 1017.8 9.7 N 12.9 0.0
13:20 23.9 56.0 1017.7 6.4 N 9.7 0.0
13:25 24.3 53.0 1017.7 6.4 N 12.9 0.0
13:25 23.9 52.0 1017.7 3.2 N 12.9 0.0
13:35 24.2 54.0 1017.6 3.2 N 16.1 0.0
13:40 24.5 56.0 1017.6 8.0 N 16.1 0.0
13:45 24.7 55.0 1017.6 4.8 N 9.7 0.0
13:50 23.9 56.0 1017.5 4.8 N 12.9 0.0
13:55 24.4 53.0 1017.5 8.0 N 12.9 0.0
14:00 24.3 51.0 1017.5 4.8 N 14.5 0.0
14:05 24.1 52.0 1017.5 4.8 N 14.5 0.0
14:10 23.7 51.0 1017.5 4.8 N 9.7 0.0
14:15 23.9 48.0 1017.4 4.8 N 9.7 0.0
14:20 24.2 49.0 1017.4 12.9 N 9.7 0.0
Màxima 24.7 93.0 1019.2 12.9 N 16.1 0.0
Mínima 11.4 48.0 1015.1
Total 0.0